Time,TemperatureF,DewpointF,PressureIn,WindDirection,WindDirectionDegrees,WindSpeedMPH,WindSpeedGustMPH,Humidity,HourlyPrecipIn,Conditions,Clouds,dailyrainin,SoftwareType,DateUTC
2013-09-10 00:12:00,54.0,51.0,30.20,South,180,1.0,3.0,90,0.00,,,0.05,,2013-09-10 06:12:00,
2013-09-10 00:22:00,54.0,51.0,30.20,South,180,2.0,2.0,91,0.00,,,0.05,,2013-09-10 06:22:00,
2013-09-10 00:42:00,54.0,51.0,30.20,South,180,1.0,2.0,91,0.00,,,0.05,,2013-09-10 06:42:00,
2013-09-10 00:52:00,53.0,50.0,30.20,SE,135,2.0,2.0,91,0.00,,,0.02,,2013-09-10 06:52:00,
2013-09-10 01:12:00,53.0,51.0,30.20,SE,135,1.0,3.0,92,0.00,,,0.01,,2013-09-10 07:12:00,
2013-09-10 01:21:00,52.0,50.0,30.20,East,90,1.0,2.0,92,0.00,,,0.00,,2013-09-10 07:21:00,
2013-09-10 01:42:00,52.0,50.0,30.20,SE,135,2.0,3.0,93,0.00,,,0.00,,2013-09-10 07:42:00,
2013-09-10 01:52:00,52.0,50.0,30.20,South,180,1.0,3.0,93,0.00,,,0.00,,2013-09-10 07:52:00,
2013-09-10 02:11:00,52.0,50.0,30.21,South,180,2.0,2.0,93,0.00,,,0.00,,2013-09-10 08:11:00,
2013-09-10 02:22:00,52.0,50.0,30.21,South,180,1.0,2.0,94,0.00,,,0.00,,2013-09-10 08:22:00,
2013-09-10 02:42:00,52.0,50.0,30.22,South,180,2.0,2.0,94,0.00,,,0.00,,2013-09-10 08:42:00,
2013-09-10 02:52:00,52.0,50.0,30.22,SE,135,1.0,4.0,94,0.00,,,0.00,,2013-09-10 08:52:00,
2013-09-10 03:11:00,51.0,49.0,30.22,South,180,2.0,3.0,94,0.00,,,0.00,,2013-09-10 09:11:00,
2013-09-10 03:21:00,51.0,50.0,30.21,SE,135,2.0,3.0,95,0.00,,,0.00,,2013-09-10 09:21:00,
2013-09-10 03:43:00,51.0,50.0,30.21,SE,135,1.0,2.0,95,0.00,,,0.00,,2013-09-10 09:43:00,
2013-09-10 03:54:00,51.0,50.0,30.22,South,180,1.0,2.0,95,0.00,,,0.00,,2013-09-10 09:54:00,
2013-09-10 04:13:00,51.0,50.0,30.22,South,180,1.0,2.0,95,0.00,,,0.00,,2013-09-10 10:13:00,
2013-09-10 04:23:00,51.0,50.0,30.22,South,180,1.0,2.0,95,0.00,,,0.00,,2013-09-10 10:23:00,
2013-09-10 04:42:00,50.0,49.0,30.22,South,180,2.0,3.0,96,0.00,,,0.00,,2013-09-10 10:42:00,
2013-09-10 04:53:00,50.0,49.0,30.22,SE,135,0.0,2.0,96,0.00,,,0.00,,2013-09-10 10:53:00,
2013-09-10 05:11:00,50.0,49.0,30.22,South,180,1.0,2.0,97,0.00,,,0.00,,2013-09-10 11:11:00,
2013-09-10 05:22:00,50.0,49.0,30.22,South,180,2.0,4.0,97,0.00,,,0.00,,2013-09-10 11:22:00,
2013-09-10 05:42:00,50.0,49.0,30.22,South,180,1.0,2.0,98,0.00,,,0.00,,2013-09-10 11:42:00,
2013-09-10 05:52:00,50.0,49.0,30.22,South,180,2.0,3.0,97,0.00,,,0.00,,2013-09-10 11:52:00,
2013-09-10 06:11:00,49.0,48.0,30.23,South,180,2.0,4.0,98,0.00,,,0.00,,2013-09-10 12:11:00,
2013-09-10 06:22:00,49.0,48.0,30.23,South,180,0.0,2.0,98,0.00,,,0.00,,2013-09-10 12:22:00,
2013-09-10 06:42:00,49.0,48.0,30.23,South,180,2.0,2.0,98,0.00,,,0.00,,2013-09-10 12:42:00,
2013-09-10 06:52:00,49.0,49.0,30.24,South,180,2.0,3.0,99,0.00,,,0.00,,2013-09-10 12:52:00,
2013-09-10 07:11:00,49.0,49.0,30.24,South,180,2.0,4.0,99,0.00,,,0.00,,2013-09-10 13:11:00,
2013-09-10 07:21:00,49.0,49.0,30.24,South,180,1.0,2.0,99,0.00,,,0.00,,2013-09-10 13:21:00,
2013-09-10 07:41:00,48.0,48.0,30.25,SE,135,1.0,2.0,99,0.00,,,0.00,,2013-09-10 13:41:00,
2013-09-10 07:52:00,48.0,48.0,30.25,South,180,2.0,4.0,99,0.00,,,0.00,,2013-09-10 13:52:00,
2013-09-10 08:11:00,49.0,49.0,30.26,South,180,1.0,2.0,99,0.00,,,0.00,,2013-09-10 14:11:00,
2013-09-10 08:21:00,49.0,49.0,30.27,South,180,0.0,1.0,99,0.00,,,0.00,,2013-09-10 14:21:00,
2013-09-10 08:42:00,49.0,49.0,30.27,South,180,0.0,2.0,99,0.00,,,0.00,,2013-09-10 14:42:00,
2013-09-10 08:52:00,50.0,50.0,30.27,South,180,0.0,0.0,99,0.00,,,0.00,,2013-09-10 14:52:00,
2013-09-10 09:11:00,50.0,50.0,30.27,South,180,0.0,0.0,99,0.00,,,0.00,,2013-09-10 15:11:00,
2013-09-10 09:22:00,51.0,51.0,30.27,South,180,0.0,0.0,99,0.00,,,0.00,,2013-09-10 15:22:00,
2013-09-10 09:43:00,53.0,53.0,30.27,South,180,0.0,0.0,99,0.00,,,0.00,,2013-09-10 15:43:00,
2013-09-10 09:54:00,54.0,54.0,30.27,South,180,0.0,0.0,99,0.00,,,0.00,,2013-09-10 15:54:00,
2013-09-10 10:12:00,58.0,58.0,30.28,West,270,1.0,2.0,99,0.00,,,0.00,,2013-09-10 16:12:00,
2013-09-10 10:23:00,63.0,62.0,30.28,West,270,0.0,2.0,96,0.00,,,0.00,,2013-09-10 16:23:00,
2013-09-10 13:21:00,77.0,58.0,30.26,West,270,2.0,7.0,52,0.00,,,0.00,,2013-09-10 19:21:00,
2013-09-10 13:42:00,77.0,58.0,30.26,NW,315,2.0,4.0,52,0.00,,,0.00,,2013-09-10 19:42:00,
2013-09-10 13:52:00,76.0,55.0,30.26,SE,135,0.0,5.0,49,0.00,,,0.00,,2013-09-10 19:52:00,
2013-09-10 14:11:00,76.0,54.0,30.26,North,0,1.0,5.0,47,0.00,,,0.00,,2013-09-10 20:11:00,
2013-09-10 14:21:00,77.0,56.0,30.25,North,0,2.0,6.0,49,0.00,,,0.00,,2013-09-10 20:21:00,
2013-09-10 14:42:00,77.0,54.0,30.25,NE,45,2.0,4.0,45,0.00,,,0.00,,2013-09-10 20:42:00,
2013-09-10 14:52:00,77.0,55.0,30.25,East,90,1.0,4.0,46,0.00,,,0.00,,2013-09-10 20:52:00,
2013-09-10 15:11:00,78.0,57.0,30.25,East,90,2.0,7.0,48,0.00,,,0.00,,2013-09-10 21:11:00,
2013-09-10 15:22:00,79.0,56.0,30.24,NW,315,2.0,4.0,46,0.00,,,0.00,,2013-09-10 21:22:00,
2013-09-10 15:44:00,79.0,56.0,30.24,North,0,1.0,9.0,45,0.00,,,0.00,,2013-09-10 21:44:00,
2013-09-10 15:54:00,79.0,56.0,30.24,North,0,1.0,4.0,45,0.00,,,0.00,,2013-09-10 21:54:00,
2013-09-10 16:13:00,79.0,56.0,30.23,NW,315,4.0,8.0,45,0.00,,,0.00,,2013-09-10 22:13:00,
2013-09-10 16:24:00,79.0,54.0,30.22,East,90,2.0,4.0,42,0.00,,,0.00,,2013-09-10 22:24:00,
2013-09-10 16:42:00,79.0,55.0,30.23,East,90,1.0,3.0,43,0.00,,,0.00,,2013-09-10 22:42:00,
2013-09-10 16:54:00,79.0,55.0,30.23,East,90,1.0,3.0,43,0.00,,,0.00,,2013-09-10 22:54:00,
2013-09-10 17:13:00,79.0,56.0,30.22,West,270,4.0,8.0,45,0.00,,,0.00,,2013-09-10 23:13:00,
2013-09-10 17:22:00,79.0,58.0,30.22,West,270,2.0,6.0,48,0.00,,,0.00,,2013-09-10 23:22:00,
2013-09-10 17:42:00,79.0,57.0,30.22,SW,225,2.0,6.0,47,0.00,,,0.00,,2013-09-10 23:42:00,
2013-09-10 17:53:00,79.0,56.0,30.22,East,90,2.0,5.0,46,0.00,,,0.00,,2013-09-10 23:53:00,
2013-09-10 18:11:00,79.0,56.0,30.22,West,270,1.0,3.0,46,0.00,,,0.00,,2013-09-11 00:11:00,
2013-09-10 18:22:00,79.0,57.0,30.22,NNW,338,3.0,6.0,47,0.00,,,0.00,,2013-09-11 00:22:00,
2013-09-10 18:42:00,78.0,56.0,30.22,NW,315,2.0,5.0,47,0.00,,,0.00,,2013-09-11 00:42:00,
2013-09-10 18:52:00,77.0,57.0,30.22,NW,315,2.0,6.0,50,0.00,,,0.00,,2013-09-11 00:52:00,
2013-09-10 19:11:00,76.0,56.0,30.22,West,270,1.0,6.0,50,0.00,,,0.00,,2013-09-11 01:11:00,
2013-09-10 19:21:00,74.0,55.0,30.22,West,270,2.0,3.0,52,0.00,,,0.00,,2013-09-11 01:21:00,
2013-09-10 19:41:00,73.0,55.0,30.22,South,180,1.0,3.0,53,0.00,,,0.00,,2013-09-11 01:41:00,
2013-09-10 19:53:00,72.0,55.0,30.22,South,180,0.0,3.0,55,0.00,,,0.00,,2013-09-11 01:53:00,
2013-09-10 20:11:00,71.0,55.0,30.22,South,180,2.0,2.0,57,0.00,,,0.00,,2013-09-11 02:11:00,
2013-09-10 20:22:00,69.0,55.0,30.24,South,180,2.0,4.0,60,0.00,,,0.00,,2013-09-11 02:22:00,
2013-09-10 20:43:00,67.0,55.0,30.24,South,180,2.0,2.0,65,0.00,,,0.00,,2013-09-11 02:43:00,
2013-09-10 20:52:00,65.0,54.0,30.24,South,180,2.0,3.0,68,0.00,,,0.00,,2013-09-11 02:52:00,
2013-09-10 21:12:00,63.0,53.0,30.25,SE,135,2.0,2.0,70,0.00,,,0.00,,2013-09-11 03:12:00,
2013-09-10 21:22:00,62.0,52.0,30.25,West,270,0.0,2.0,71,0.00,,,0.00,,2013-09-11 03:22:00,
2013-09-10 21:44:00,61.0,52.0,30.26,South,180,2.0,3.0,73,0.00,,,0.00,,2013-09-11 03:44:00,
2013-09-10 21:54:00,60.0,52.0,30.26,SW,225,0.0,1.0,74,0.00,,,0.00,,2013-09-11 03:54:00,
2013-09-10 22:14:00,59.0,51.0,30.26,SE,135,0.0,2.0,75,0.00,,,0.00,,2013-09-11 04:14:00,
2013-09-10 22:24:00,58.0,50.0,30.27,SE,135,2.0,3.0,76,0.00,,,0.00,,2013-09-11 04:24:00,
2013-09-10 22:43:00,57.0,50.0,30.26,SE,135,2.0,3.0,78,0.00,,,0.00,,2013-09-11 04:43:00,
2013-09-10 22:54:00,57.0,50.0,30.26,South,180,2.0,2.0,78,0.00,,,0.00,,2013-09-11 04:54:00,
2013-09-10 23:12:00,57.0,51.0,30.27,SE,135,1.0,2.0,79,0.00,,,0.00,,2013-09-11 05:12:00,
2013-09-10 23:22:00,56.0,50.0,30.27,South,180,1.0,2.0,79,0.00,,,0.00,,2013-09-11 05:22:00,
2013-09-10 23:42:00,56.0,50.0,30.27,South,180,1.0,2.0,80,0.00,,,0.00,,2013-09-11 05:42:00,
2013-09-10 23:53:00,56.0,50.0,30.27,SE,135,0.0,2.0,80,0.00,,,0.00,,2013-09-11 05:53:00,